GEO-KOMPSAT-2B

Last updated on Mon Sep 07 2026 00:03:01 GMT+0000 (Coordinated Universal Time)

1 45246U 20013B 26248.69055419 -.00000356 00000+0 00000+0 0 9991 2 45246 0.0470 311.8758 0001526 274.0419 135.7398 1.00272125 24088
UTC large
Height (km)
Speed (km/s)
/
Latitude / Longitude
Inclination (degrees)
Orbital Period (minutes)
Azimuth
Elevation
Range (km)
Doppler Factor

Next 0 passes for location: London (51.5072 / 0.1276)

No passes found over London.
GEO-KOMPSAT-2B